Tracking 25709 objects as of 23-May-2022
HD Live streaming from Space Station
objects crossing your sky now

DELTA 1 DEB

Track DELTA 1 DEB now!
10-day predictions


NORAD ID: 10251
Int'l Code: 1977-065CC
Perigee: 466.0 km
Apogee: 1,519.6 km
Inclination: 29.0 °
Period: 104.8 minutes
Semi major axis: 7363 km
RCS: 0.0179 m2 (small)
Launch date: July 14, 1977
Source: United States (US)
Launch site: AIR FORCE EASTERN TEST RANGE (AFETR)

Note: This is SATELLITE DEBRIS
aabbcc
Your satellite tracking list
Your tracking list is empty




NASA's NSSDC Master Catalog

Two Line Element Set (TLE):
1 10251U 77065CC  22143.47119770  .00004762  00000-0  68653-3 0  9992
2 10251  28.9732 260.9316 0715363 139.7518 225.8297 13.73888525211951
Source of the keplerian elements: AFSPC